Location: Martley
(52.2333°N, 2.3667°W)
Time: 23:44:59
(UTC+00:00)

Cosmos 1378 Rocket - Pass Details

Date: 11 December 2019
Orbit: 602 x 627 km, 82.5° (Epoch: 22 January)

Event Time Altitude Azimuth Distance (km) Brightness Sun altitude
Exits shadow 07:04:18 - 344° (NNW) 2,793 6.5 -9.1°
Reaches altitude 10° 07:06:18 10° 339° (NNW) 2,000 5.7 -8.8°
Maximum altitude 07:10:31 46° 267° (W) 845 3.9 -8.3°
Drops below altitude 10° 07:14:45 10° 194° (SSW) 1,995 6.4 -7.7°
Sets 07:17:02 0° 188° (S) 2,899 7.3 -7.4°
